Dewpoint
-15 -13 -11 -12 -12 -11 -11 -12 -12 -11 -10 -9 -9 -9 -11 -12 -15 -14 -13 -7 -10 -14 -19 -25 -29 -32 -31 -29 -28 -28 -28 -28 -26 -17 -8 -7 -5 -5
-16 -12 -12 -10 -10 -10 -11 -12 -10 -10 -10 -9 -9 -9 -10 -12 -15 -14 -10 -8 -11 -15 -21 -28 -31 -31 -30 -28 -28 -27 -27 -26 -25 -24 -19 -10 -6 -6
-15 -13 -12 -10 -9 -10 -10 -10 -9 -9 -9 -9 -9 -9 -10 -12 -15 -14 -8 -9 -13 -16 -22 -28 -30 -29 -28 -27 -27 -27 -26 -25 -24 -23 -23 -11 -7 -6
-12 -13 -12 -10 -10 -11 -10 -10 -10 -10 -9 -9 -9 -9 -10 -12 -15 -14 -8 -10 -13 -17 -24 -29 -29 -28 -27 -27 -26 -25 -24 -23 -23 -22 -21 -21 -15 -8
-8 -9 -12 -11 -11 -12 -11 -10 -10 -10 -10 -9 -9 -9 -10 -12 -14 -12 -8 -10 -13 -17 -25 -29 -28 -27 -26 -26 -25 -24 -23 -23 -22 -22 -22 -24 -17 -10
-3 -5 -8 -10 -12 -12 -13 -13 -12 -11 -10 -10 -10 -9 -10 -13 -13 -9 -8 -10 -14 -19 -25 -28 -27 -26 -25 -25 -24 -23 -23 -22 -22 -23 -25 -26 -23 -16
-1 -2 -2 -4 -8 -9 -9 -9 -11 -11 -11 -11 -10 -9 -10 -13 -12 -8 -8 -10 -15 -21 -25 -27 -26 -25 -24 -24 -23 -23 -23 -23 -25 -26 -27 -28 -28 -27
2 1 0 -0 -2 -3 -5 -6 -10 -10 -10 -11 -10 -10 -10 -12 -10 -7 -8 -11 -16 -17 -23 -27 -24 -24 -23 -23 -22 -23 -24 -26 -27 -28 -29 -30 -30 -30
4 4 3 1 -1 -1 -3 -7 -9 -10 -12 -12 -11 -10 -11 -12 -8 -7 -8 -12 -17 -22 -27 -26 -24 -23 -24 -23 -23 -25 -26 -28 -29 -30 -30 -30 -30 -30
5 5 3 1 -1 -1 -3 -7 -9 -10 -12 -12 -12 -12 -13 -10 -8 -7 -10 -12 -15 -24 -27 -25 -24 -23 -24 -22 -24 -25 -28 -29 -30 -30 -30 -30 -30 -30
2 5 3 1 -1 -3 -3 -6 -8 -10 -12 -12 -13 -14 -12 -9 -7 -7 -10 -6 -9 -26 -26 -24 -24 -25 -25 -23 -25 -27 -27 -29 -30 -30 -30 -30 -29 -29
5 4 3 0 -2 -3 -4 -5 -8 -9 -12 -13 -13 -14 -10 -8 -7 -6 -3 -3 -20 -26 -25 -23 -24 -25 -26 -23 -26 -27 -27 -30 -30 -30 -30 -29 -29 -29
5 3 0 -1 -2 -3 -4 -6 -7 -9 -12 -13 -14 -13 -10 -7 -4 -5 -6 -14 -25 -25 -23 -22 -23 -25 -25 -25 -26 -27 -29 -30 -30 -29 -29 -29 -29 -28
3 1 -1 -2 -2 -3 -5 -7 -8 -12 -13 -14 -14 -12 -8 -4 -4 -5 -9 -15 -24 -23 -22 -21 -22 -24 -24 -25 -25 -28 -30 -29 -29 -29 -28 -29 -28 -28
3 1 -1 -1 -2 -4 -4 -6 -10 -13 -14 -14 -14 -9 -5 -5 -5 -8 -6 -23 -22 -21 -21 -21 -22 -23 -23 -24 -25 -27 -27 -30 -29 -28 -28 -28 -28 -28
1 0 -1 -2 -3 -1 -5 -10 -13 -14 -15 -15 -11 -5 -5 -4 -6 -5 -17 -20 -21 -21 -20 -21 -23 -23 -24 -24 -26 -26 -26 -26 -27 -27 -26 -27 -28 -28
3 -0 -0 -1 0 -2 -8 -12 -14 -15 -15 -13 -6 -4 -3 -4 -4 -13 -17 -19 -20 -20 -20 -21 -24 -23 -24 -25 -27 -27 -28 -28 -26 -26 -26 -26 -28 -27
1 -0 0 1 -3 -7 -9 -5 -10 -15 -14 -8 -4 -3 -3 -4 -14 -13 -15 -20 -19 -20 -20 -22 -24 -24 -25 -27 -26 -28 -28 -25 -25 -25 -25 -25 -28 -26
2 1 1 -2 -5 -3 -1 -2 -10 -13 -10 -3 -3 -4 -4 -11 -11 -10 -20 -19 -19 -19 -20 -22 -24 -24 -26 -28 -29 -25 -25 -25 -24 -24 -23 -23 -24 -25
1 1 -2 -3 -3 -1 -1 -7 -11 -5 -3 -4 -4 -4 -6 -7 -10 -20 -19 -19 -19 -20 -20 -22 -23 -24 -25 -24 -26 -28 -21 -23 -23 -22 -19 -19 -20 -23
-0 -1 -1 -2 -1 -1 -4 -10 -3 -3 -4 -4 -5 -5 -7 -12 -19 -19 -19 -19 -19 -20 -21 -22 -23 -22 -22 -22 -21 -24 -25 -23 -21 -19 -18 -18 -18 -21
-1 -1 -2 -2 -2 -2 -5 -4 -5 -5 -5 -5 -5 -8 -16 -19 -19 -19 -19 -19 -19 -20 -22 -23 -23 -22 -23 -22 -21 -19 -21 -22 -22 -21 -18 -18 -17 -14
-2 -2 -3 -3 -3 -4 -4 -5 -5 -5 -5 -5 -8 -15 -19 -19 -19 -19 -19 -19 -19 -22 -24 -25 -25 -24 -22 -20 -18 -19 -20 -19 -18 -19 -20 -19 -19 -19
Wind_Speed
35 25 21 17 18 16 16 22 19 18 22 19 16 16 13 10 7 5 2 3 6 8 9 11 12 11 12 12 13 15 16 17 19 19 19 20 21 21
36 28 23 19 19 15 15 22 14 9 18 18 17 16 14 12 9 6 3 2 6 8 9 10 10 11 12 13 13 15 16 17 19 20 21 21 22 22
38 29 24 21 19 17 20 21 14 10 11 16 18 16 15 13 10 7 3 2 4 8 10 10 10 11 12 13 14 15 17 19 20 21 22 22 22 22
38 33 27 23 21 19 20 17 13 11 10 13 17 17 16 14 11 8 4 3 5 8 9 9 9 10 11 12 14 15 17 19 20 22 23 24 24 24
36 35 31 26 24 21 19 16 14 12 11 10 13 16 17 15 12 9 5 4 6 9 10 9 9 10 11 12 14 15 17 19 21 22 23 24 25 24
35 33 30 27 25 22 19 17 15 15 13 13 13 15 17 16 14 10 6 5 7 9 10 9 8 9 11 13 14 16 18 19 21 22 23 24 25 26
35 30 27 24 23 21 19 18 17 16 16 16 16 18 18 16 14 10 7 6 7 9 10 9 9 10 11 13 13 15 17 18 19 21 22 24 26 28
35 30 26 25 23 22 19 17 15 16 17 17 17 17 15 14 13 9 8 7 7 10 10 9 9 11 12 12 12 15 15 17 19 21 23 25 26 27
33 30 28 26 25 24 23 20 19 17 15 11 13 14 14 12 11 10 7 6 8 9 9 10 9 11 12 11 11 13 14 17 20 21 24 26 27 28
31 27 26 29 27 27 24 22 22 20 18 16 15 12 13 13 12 9 7 6 8 11 9 9 10 10 11 7 11 11 15 18 21 22 24 26 28 29
28 31 30 28 27 26 24 24 23 21 20 19 17 16 15 14 11 8 5 7 11 11 9 9 10 11 8 4 10 12 16 19 21 22 25 27 29 31
32 31 30 28 25 24 24 23 23 22 21 21 19 18 16 14 11 6 5 10 10 8 9 8 8 10 6 5 10 13 17 20 22 22 25 27 30 33
32 34 31 29 26 22 22 20 19 18 18 17 18 17 16 13 8 5 8 9 8 9 8 8 8 8 7 10 11 14 19 21 22 23 24 26 28 30
36 35 30 27 22 21 19 20 19 18 18 18 18 17 15 10 7 7 9 9 8 8 9 8 9 9 9 12 15 17 19 22 23 28 28 28 27 27
34 31 29 27 24 22 22 21 21 20 19 20 18 16 13 10 7 9 11 8 8 8 8 9 11 11 11 13 18 21 24 23 23 29 29 29 31 30
33 30 29 29 28 27 27 25 22 19 18 18 17 15 12 9 11 12 8 9 8 8 9 10 11 12 13 14 18 19 20 25 29 30 33 31 31 27
35 35 36 34 33 32 28 23 22 21 20 19 17 15 12 13 13 9 9 8 8 8 9 10 11 13 15 18 17 18 22 26 29 32 35 36 32 30
37 38 37 35 32 28 25 23 22 23 23 20 17 15 14 12 10 9 9 9 9 9 10 11 12 13 16 17 16 19 26 29 31 32 32 38 39 31
34 36 34 32 31 31 26 24 26 25 22 19 16 14 12 12 11 10 9 10 10 11 11 11 13 16 19 22 20 22 28 30 34 35 33 33 36 33
30 31 31 29 27 24 23 26 27 22 19 17 15 14 12 12 11 10 10 10 11 11 10 11 13 15 18 21 25 24 22 28 31 35 36 34 31 30
30 28 26 26 24 22 22 27 21 17 16 15 15 13 12 11 10 9 10 10 11 10 11 11 13 15 17 20 22 26 23 21 25 31 34 35 36 36
25 25 23 21 21 19 24 22 18 17 16 15 13 13 12 11 10 10 9 10 10 10 11 12 12 14 17 20 22 25 29 27 23 22 23 24 29 29
19 19 19 20 22 20 21 20 18 16 15 14 13 13 12 11 10 9 8 8 9 9 11 12 13 14 16 20 23 25 28 29 33 30 21 22 23 22
Wind_Direction
200 204 202 206 204 207 212 209 203 185 197 198 192 195 192 189 188 187 195 343 358 355 352 347 348 349 349 350 352 353 354 356 356 359 1 360 358 356
199 202 203 202 194 192 185 190 201 220 196 197 193 194 193 189 192 195 213 326 346 345 345 344 345 344 344 347 350 352 352 353 354 355 354 355 354 353
197 199 200 199 193 185 177 190 201 201 206 193 188 189 193 194 197 197 217 302 323 336 336 336 335 338 342 344 345 347 349 349 349 350 352 352 351 349
198 199 200 198 194 192 192 197 203 204 207 196 189 194 193 198 200 204 222 284 317 321 323 324 329 333 335 336 340 342 343 343 344 349 352 350 349 348
200 202 202 201 199 200 200 203 208 212 212 210 203 198 200 200 203 210 225 269 302 311 315 318 324 325 328 331 333 337 338 342 344 344 348 351 350 348
201 203 204 206 209 212 213 216 218 221 220 213 205 206 204 200 202 211 232 271 294 305 309 312 312 315 322 327 330 335 339 341 343 344 347 351 349 347
199 201 205 211 216 222 228 228 226 227 225 218 214 210 207 204 207 212 230 261 285 297 301 299 302 308 319 323 326 332 336 339 342 344 345 346 344 343
197 199 204 209 215 220 224 226 236 241 234 227 221 218 214 205 206 214 234 258 280 293 288 286 291 303 313 318 322 331 336 341 342 341 340 341 340 340
200 203 207 210 213 217 217 216 219 219 216 237 238 226 216 211 209 218 237 268 283 291 283 277 279 299 310 309 323 332 337 338 338 339 340 339 340 341
203 206 217 218 215 216 217 218 220 219 216 215 210 212 204 206 205 217 235 269 301 285 275 278 285 299 305 284 324 332 337 335 336 337 340 340 340 341
197 217 218 221 222 219 218 223 222 218 214 211 205 201 204 202 204 218 244 309 301 276 270 276 293 310 304 261 330 329 335 334 336 336 340 340 339 340
211 215 218 221 222 221 220 222 222 221 220 214 205 204 202 204 210 217 286 306 276 276 265 279 300 316 308 254 326 322 330 332 336 334 340 341 341 339
208 213 212 213 215 214 217 220 226 229 218 211 205 202 201 201 208 251 292 284 266 263 274 289 305 319 316 313 322 325 330 330 332 333 339 341 342 340
208 214 208 208 203 209 213 213 216 217 214 206 203 200 199 202 216 267 278 269 259 272 285 301 315 324 323 322 330 328 328 334 332 335 339 340 340 339
214 211 208 207 207 202 210 214 211 210 211 206 200 196 200 209 242 259 280 248 257 275 291 308 313 320 327 331 330 334 326 334 332 333 335 339 340 343
206 208 207 205 202 210 207 205 205 205 207 204 195 203 206 240 248 270 238 250 265 279 296 307 313 316 321 327 331 327 326 327 332 335 333 338 340 343
199 200 203 202 207 208 203 198 195 198 196 194 204 209 237 250 260 230 238 252 263 278 297 305 306 311 317 325 330 326 328 330 333 335 333 333 341 346
197 199 200 206 203 198 194 200 199 200 196 202 214 237 247 253 222 233 244 253 266 282 295 301 303 305 309 324 333 336 333 335 333 333 333 332 336 346
203 203 205 200 195 197 206 201 200 193 208 226 227 234 237 215 230 235 244 256 272 288 301 306 308 311 318 325 336 347 335 332 330 330 335 335 334 340
205 205 203 201 200 205 202 192 195 212 213 211 224 224 218 221 223 232 246 263 279 296 302 307 309 314 324 329 330 337 336 329 332 331 335 335 336 337
198 201 203 203 202 202 191 192 211 207 206 215 215 216 205 210 221 234 252 269 285 301 309 311 312 317 322 323 320 324 334 335 336 333 338 336 340 339
197 200 198 200 196 194 192 204 200 200 209 206 205 198 201 212 227 242 258 274 290 303 309 317 315 314 317 321 326 330 334 336 340 341 345 344 343 330
195 194 189 190 193 195 192 191 196 203 204 204 197 198 210 222 231 247 266 283 294 303 312 316 311 313 321 324 328 333 335 339 341 348 353 346 346 339
Height
1573 1577 1580 1584 1586 1588 1590 1593 1594 1597 1601 1604 1606 1609 1611 1613 1614 1615 1615 1615 1614 1613 1611 1609 1607 1605 1602 1600 1598 1595 1593 1590 1587 1583 1580 1577 1575 1570
1569 1574 1578 1582 1585 1587 1590 1594 1595 1596 1598 1601 1604 1607 1609 1612 1613 1613 1613 1613 1613 1612 1610 1608 1606 1604 1602 1600 1597 1594 1592 1589 1586 1582 1579 1575 1573 1569
1564 1570 1576 1581 1584 1587 1590 1593 1594 1596 1598 1599 1602 1605 1607 1609 1611 1612 1612 1612 1611 1610 1609 1607 1605 1603 1601 1599 1596 1593 1591 1588 1584 1580 1577 1574 1571 1567
1561 1567 1573 1578 1583 1586 1589 1591 1593 1595 1597 1598 1600 1602 1605 1607 1609 1610 1610 1610 1610 1609 1607 1605 1604 1602 1600 1597 1595 1592 1589 1586 1583 1578 1575 1572 1568 1564
1559 1564 1570 1576 1581 1585 1588 1590 1592 1594 1596 1596 1597 1600 1603 1605 1607 1609 1609 1608 1608 1607 1606 1604 1602 1601 1599 1596 1594 1591 1588 1584 1581 1577 1573 1570 1565 1561
1557 1563 1569 1574 1579 1584 1586 1588 1590 1592 1594 1595 1596 1598 1600 1602 1603 1605 1607 1607 1606 1606 1605 1603 1601 1599 1597 1595 1593 1590 1587 1583 1580 1575 1571 1568 1564 1559
1553 1560 1566 1573 1578 1582 1584 1586 1588 1590 1591 1592 1593 1595 1597 1598 1601 1602 1603 1603 1604 1603 1602 1601 1600 1598 1596 1593 1591 1589 1585 1581 1578 1573 1569 1566 1561 1557
1550 1557 1564 1569 1574 1578 1582 1584 1587 1589 1590 1591 1592 1593 1595 1597 1599 1600 1601 1601 1602 1600 1599 1600 1598 1597 1594 1592 1590 1587 1583 1580 1576 1572 1567 1563 1558 1553
1548 1555 1561 1564 1569 1574 1578 1581 1583 1585 1588 1590 1592 1593 1594 1596 1598 1598 1599 1599 1598 1598 1597 1597 1596 1594 1592 1590 1588 1586 1582 1578 1575 1570 1565 1560 1555 1550
1546 1552 1556 1562 1565 1570 1574 1577 1580 1582 1584 1587 1589 1591 1593 1594 1596 1597 1597 1597 1596 1596 1596 1596 1595 1592 1590 1589 1587 1584 1581 1577 1573 1569 1564 1558 1552 1547
1542 1549 1554 1559 1563 1567 1570 1574 1577 1578 1580 1583 1585 1588 1590 1591 1593 1594 1595 1595 1594 1594 1594 1594 1593 1590 1587 1586 1584 1582 1578 1575 1571 1566 1561 1555 1549 1543
1539 1546 1551 1556 1560 1564 1568 1571 1573 1575 1578 1579 1582 1585 1587 1589 1591 1592 1592 1592 1591 1592 1593 1593 1592 1589 1586 1584 1584 1581 1577 1573 1569 1564 1559 1553 1546 1539
1535 1541 1547 1553 1557 1561 1565 1569 1572 1575 1577 1579 1580 1582 1585 1587 1588 1590 1589 1590 1590 1590 1591 1591 1590 1588 1586 1583 1582 1579 1574 1570 1566 1562 1557 1551 1544 1538
1533 1540 1546 1550 1553 1558 1562 1566 1569 1572 1574 1576 1578 1580 1584 1585 1586 1587 1587 1587 1588 1589 1589 1588 1587 1585 1583 1581 1579 1576 1573 1568 1562 1557 1552 1547 1542 1536
1532 1538 1542 1546 1550 1555 1558 1561 1565 1568 1571 1574 1575 1578 1581 1582 1584 1584 1583 1584 1585 1586 1586 1585 1583 1581 1580 1578 1575 1572 1567 1565 1560 1553 1549 1544 1536 1530
1527 1533 1539 1543 1548 1551 1554 1557 1561 1565 1569 1572 1573 1576 1578 1579 1581 1581 1581 1582 1584 1585 1584 1582 1581 1579 1578 1576 1573 1569 1565 1559 1555 1549 1542 1539 1533 1527
1519 1525 1531 1538 1541 1545 1550 1555 1558 1563 1567 1569 1571 1574 1575 1577 1578 1577 1579 1581 1582 1583 1581 1580 1578 1577 1575 1573 1570 1566 1562 1557 1551 1544 1537 1531 1528 1522
1514 1520 1525 1530 1537 1543 1548 1552 1556 1560 1563 1565 1568 1572 1573 1574 1576 1577 1579 1580 1581 1580 1578 1576 1575 1575 1574 1571 1567 1563 1557 1551 1547 1542 1536 1526 1520 1518
1514 1517 1523 1528 1533 1538 1543 1548 1553 1557 1562 1565 1566 1569 1570 1573 1574 1576 1577 1578 1578 1577 1575 1573 1573 1573 1569 1566 1565 1559 1553 1549 1542 1536 1532 1526 1517 1512
1512 1516 1522 1526 1530 1536 1541 1547 1553 1556 1559 1561 1565 1566 1567 1571 1573 1575 1576 1576 1575 1573 1572 1572 1571 1570 1567 1563 1559 1557 1554 1546 1540 1531 1524 1519 1515 1510
1510 1515 1519 1523 1529 1534 1540 1548 1553 1554 1557 1558 1561 1564 1566 1570 1572 1574 1574 1573 1571 1570 1569 1570 1569 1567 1564 1561 1557 1553 1551 1547 1540 1530 1521 1511 1505 1500
1509 1513 1518 1522 1526 1533 1539 1545 1550 1553 1555 1556 1559 1563 1566 1568 1569 1571 1570 1570 1569 1567 1568 1567 1566 1564 1561 1558 1554 1550 1544 1540 1538 1532 1524 1517 1506 1497
1507 1512 1516 1520 1525 1532 1538 1541 1547 1551 1555 1556 1558 1562 1565 1567 1566 1567 1566 1566 1567 1566 1565 1565 1563 1561 1558 1555 1551 1546 1541 1535 1528 1524 1522 1516 1509 1504